Weather History for Joplin, MO

Change the Weather History Date:

Saturday, March 2, 2013

  Actual Average Record
Temperature  
Mean Temperature 29 °F 44 °F  
Max Temperature 36 °F 55 °F 80 °F (1983)
Min Temperature 22 °F 34 °F 3 °F (1980)
Degree Days  
Heating Degree Days 36 21  
Month to date heating degree days 72 42  
Since 1 July heating degree days 3188 3296  
Cooling Degree Days 0 0  
Month to date cooling degree days 0 0  
Year to date cooling degree days 1 1  
Moisture  
Dew Point 20 °F    
Average Humidity 72    
Maximum Humidity 92    
Minimum Humidity 52    
Precipitation  
Precipitation 0.00 in 0.10 in 1.02 in (1988)
Month to date precipitation T 0.20  
Year to date precipitation 5.15 4.55  
Snow  
Snow 0.00 in - - ()
Month to date snowfall T  
Snow Depth T in    
Sea Level Pressure  
Sea Level Pressure 30.32 in    
Wind  
Wind Speed 8 mph (North)    
Max Wind Speed 15 mph    
Max Gust Speed -    
Visibility 10 miles    
Events      
T = Trace of Precipitation, MM = Missing Value Source: NWS Daily Summary

Daily Weather History Graph

Daily Weather History Graph

Search for Another Location

Airport:

Trip Planner

Search our weather history database for the weather conditions in past years. The results will help you decide how hot, cold, wet, or windy it might be!

Date:

Astronomy

Mar. 02, 2013 Rise Set
Actual Time 6:47 AM CST 6:13 PM CST
Civil Twilight 6:21 AM CST 6:39 PM CST
Nautical Twilight 5:51 AM CST 7:09 PM CST
Astronomical Twilight 5:20 AM CST 7:39 PM CST
Moon 11:45 PM CST 9:24 AM CST
Length of Visible Light 12h 18m
Length of Day
11h 26m
Waning Gibbous, 74% of the Moon is Illuminated
Mar 2
Waning Gibbous
Mar 4
Last Quarter
Mar 11
New
Mar 19
First Quarter
Mar 27
Full

Hourly Weather History & Observations

Time (CST) Temp. Windchill Dew Point Humidity Pressure Visibility Wind Dir Wind Speed Gust Speed Precip Events Conditions
12:53 AM 26.1 °F 16.8 °F 19.9 °F 78% 30.32 in 10.0 mi NNW 9.2 mph - N/A   Overcast
1:53 AM 26.1 °F 16.8 °F 19.9 °F 78% 30.33 in 10.0 mi NNW 9.2 mph - N/A   Overcast
2:53 AM 25.0 °F 14.8 °F 19.9 °F 81% 30.32 in 10.0 mi North 10.4 mph - N/A   Overcast
3:53 AM 26.1 °F 20.5 °F 21.0 °F 81% 30.31 in 10.0 mi North 4.6 mph - N/A   Overcast
4:53 AM 26.1 °F 17.6 °F 21.0 °F 81% 30.32 in 10.0 mi NNW 8.1 mph - N/A   Overcast
5:53 AM 25.0 °F 18.1 °F 21.0 °F 85% 30.34 in 9.0 mi NNW 5.8 mph - N/A   Overcast
6:53 AM 21.9 °F 13.4 °F 19.0 °F 89% 30.35 in 8.0 mi NNW 6.9 mph - N/A   Clear
7:53 AM 24.1 °F 13.7 °F 19.0 °F 81% 30.37 in 8.0 mi NNW 10.4 mph - N/A   Clear
8:53 AM 27.0 °F 18.0 °F 19.0 °F 72% 30.38 in 10.0 mi NNW 9.2 mph - N/A   Partly Cloudy
9:17 AM 26.6 °F 14.7 °F 19.4 °F 74% 30.36 in 10.0 mi North 15.0 mph - N/A   Mostly Cloudy
9:53 AM 27.0 °F 17.3 °F 19.0 °F 72% 30.38 in 10.0 mi North 10.4 mph - N/A   Overcast
10:53 AM 28.0 °F 19.3 °F 18.0 °F 66% 30.38 in 10.0 mi North 9.2 mph - N/A   Overcast
11:53 AM 30.0 °F 21.7 °F 19.9 °F 66% 30.38 in 10.0 mi NW 9.2 mph - N/A   Mostly Cloudy
12:53 PM 30.0 °F 23.2 °F 19.9 °F 66% 30.35 in 10.0 mi North 6.9 mph - N/A   Mostly Cloudy
1:53 PM 33.1 °F 27.7 °F 21.0 °F 61% 30.33 in 10.0 mi North 5.8 mph - N/A   Clear
2:53 PM 34.0 °F 28.8 °F 21.0 °F 59% 30.31 in 10.0 mi NW 5.8 mph - N/A   Clear
3:53 PM 35.1 °F 29.3 °F 19.9 °F 54% 30.30 in 10.0 mi NNW 6.9 mph - N/A   Clear
4:53 PM 36.0 °F 31.1 °F 19.9 °F 52% 30.29 in 10.0 mi NNW 5.8 mph - N/A   Clear
5:53 PM 33.1 °F 27.7 °F 21.0 °F 61% 30.29 in 10.0 mi NW 5.8 mph - N/A   Clear
6:53 PM 30.9 °F - 19.9 °F 64% 30.30 in 10.0 mi Calm Calm - N/A   Clear
7:53 PM 28.0 °F 22.8 °F 19.9 °F 72% 30.28 in 10.0 mi ENE 4.6 mph - N/A   Clear
8:53 PM 28.0 °F 22.8 °F 19.9 °F 72% 30.27 in 9.0 mi East 4.6 mph - N/A   Clear
9:53 PM 26.1 °F 20.5 °F 19.9 °F 78% 30.27 in 10.0 mi ESE 4.6 mph - N/A   Scattered Clouds
10:53 PM 26.6 °F 22.6 °F 21.2 °F 80% 30.22 in 10.0 mi ESE 3.5 mph - N/A   Overcast
11:53 PM 26.1 °F 20.5 °F 19.9 °F 78% 30.22 in 9.0 mi ESE 4.6 mph - N/A   Clear